Powrót do katalogu

CZ-6A DEB

AktywnyPO
NORAD 54611·DEBRIS·🇨🇳 China

Wystrzelony Nov 11, 2022 z Taiyuan Satellite Launch Center

Loading…

Następne Przeloty (najbliższe 24 godziny)

TLE

ŚwieżeSource: Space-Track

Epoka: Sep 12, 2026, 05:22 UTC

1 54611U 22151NM  26255.22370120  .00047654  00000-0  23064-2 0  9998
2 54611  98.6028   5.0219 0039084 223.8186 135.9942 15.17733129205024

Śledź CZ-6A DEB w czasie rzeczywistym z AllMySat

Download on the App Store